星链-4188 (STARLINK-4188 )

导读 | 豆包AI

STARLINK-4188是美国太空探索技术公司(SpaceX)星链(Starlink)计划中的一颗卫星,于2022年6月17日发射入轨,属于星链星座组网的卫星之一。星链计划旨在搭建覆盖全球的卫星互联网星座,该卫星承担着为全球用户提供低延迟、高速率宽带互联网接入服务的任务,助力实现全球网络覆盖的目标。

基本信息
目录编号:
52843
目录名称:
STARLINK-4188
国际标识:
2022-062P
轨道中心:
EARTH
卫星名称:
星链-4188
卫星全名:
星链-4188 (STARLINK-4188 )
卫星状态:
在轨 (已飞行1413 天)
发射日期:
2022-06-17 UTC
国别 :
美国 (US)
星等 :
--
轨道信息
数据来源 国际轨道数据 AOE轨道数据
星历时间 2026-04-30T20:29:22+0800
9小时前
查看轨道信息
2026-04-30T08:00:00+0800
21小时前
查看轨道信息
半长轴 6917.873km 6917.882km
偏心率 0.0001194 0.0000939
轨道倾角 53.216° 53.217°
近地点辐角 85.456° 66.830°
升交点赤经 161.443° 163.779°
平近点角 274.657° 345.019°
近地点 538.91km 539.095km
远地点 540.562km 540.395km
周期 95.437分钟 95.438分钟
每日圈数 15.088427 15.088396
详细信息
固有亮度:
5
最大亮度:
2.5
卫星平台:
Starlink v1.5
覆盖范围:
全球
运营商:
太空探索技术公司
运营商所在国:
美国
制造商(研发单位):
太空探索技术公司
制造商所在国:
美国
使用方式:
暂无
卫星简介
星链(Starlink)计划是由太空探索技术公司(SpaceX)提出的一个巨型低轨卫星互联网星座项目,计划在2019年至2024年间在太空搭建由约1.2万颗卫星组成的“星链”网络,其中1584颗将部署在地球上空550千米处的近地轨道,并从2020年开始工作。该卫星仍在工作。
2D轨道图
3D轨道图
轨道高度分析图
轨道倾角分析图
轨道综合分析图
查看轨道综合分析图